This is the latest recevied weather packets stored in our database for station/object KD5FHA. If no packets are shown the sender has not sent any weather packets the latest 10 day(s).
| Time | Temp. | Humidity | Pressure | Rain* | Wind** | Luminosity | Snow |
|---|---|---|---|---|---|---|---|
| 1777917773 | 25° C | 60% | 1012 hPa | 0 mm | - | 970 W/m² | - |
| 1777917470 | 24.44° C | 61% | 1012 hPa | 0 mm | - | 985 W/m² | - |
| 1777917167 | 24.44° C | 60% | 1011.9 hPa | 0 mm | - | 779 W/m² | - |
| 1777916865 | 25° C | 59% | 1012.2 hPa | 0 mm | - | 986 W/m² | - |
| 1777916563 | 24.44° C | 59% | 1012.2 hPa | 0 mm | - | 929 W/m² | - |
| 1777916259 | 24.44° C | 59% | 1012.3 hPa | 0 mm | - | 908 W/m² | - |
| 1777915956 | 24.44° C | 59% | 1012.4 hPa | 0 mm | - | 902 W/m² | - |
| 1777915653 | 24.44° C | 59% | 1012.4 hPa | 0 mm | - | 899 W/m² | - |
| 1777915349 | 23.89° C | 60% | 1012.4 hPa | 0 mm | - | 901 W/m² | - |
| 1777915046 | 24.44° C | 60% | 1012.7 hPa | 0 mm | - | 907 W/m² | - |
| 1777914743 | 24.44° C | 59% | 1012.8 hPa | 0 mm | - | 896 W/m² | - |
| 1777914439 | 24.44° C | 60% | 1012.6 hPa | 0 mm | - | 876 W/m² | - |
| 1777914137 | 23.89° C | 60% | 1013 hPa | 0 mm | - | 818 W/m² | - |
| 1777913833 | 24.44° C | 59% | 1013 hPa | 0 mm | - | 813 W/m² | - |
| 1777913529 | 23.89° C | 61% | 1013.1 hPa | 0 mm | - | 798 W/m² | - |
| 1777913226 | 23.89° C | 59% | 1013.1 hPa | 0 mm | - | 838 W/m² | - |
| 1777912923 | 23.89° C | 60% | 1013.1 hPa | 0 mm | - | 806 W/m² | - |
| 1777912619 | 23.89° C | 61% | 1013.1 hPa | 0 mm | - | 823 W/m² | - |
| 1777912315 | 23.33° C | 60% | 1013.3 hPa | 0 mm | - | 810 W/m² | - |
| 1777912011 | 22.78° C | 60% | 1013.4 hPa | 0 mm | - | 786 W/m² | - |
| 1777911707 | 23.33° C | 61% | 1013.3 hPa | 0 mm | - | 791 W/m² | - |
| 1777911403 | 22.78° C | 62% | 1013.3 hPa | 0 mm | - | 767 W/m² | - |
| 1777911102 | 22.22° C | 62% | 1013.2 hPa | 0 mm | - | 763 W/m² | - |
| 1777910799 | 22.78° C | 61% | 1013.4 hPa | 0 mm | - | 747 W/m² | - |
| 1777910495 | 22.22° C | 63% | 1013.4 hPa | 0 mm | - | 723 W/m² | - |
* Rain latest hour (hover to see other rain measurements)
** Current wind speed in m/s (hover to see current wind gust speed)